Prestonsburg, KY

8:19 PM EDT on August 18, 2017 (GMT -0400)
Prestonsburg

Weather History for KK22 - December, 2012

Change the Weather History Date:

Friday, December 21, 2012

  Actual Average (KJKL) Record (KJKL)
Temperature  
Mean Temperature 32 °F -  
Max Temperature 35 °F 41 °F 73 °F (2013)
Min Temperature 28 °F 26 °F -4 °F (1989)
Degree Days  
Heating Degree Days 34    
Moisture  
Dew Point 25 °F    
Average Humidity 80    
Maximum Humidity 90    
Minimum Humidity 70    
Precipitation  
Precipitation 0.00 in - - ()
Sea Level Pressure  
Sea Level Pressure 29.79 in    
Wind  
Wind Speed 12 mph (West)    
Max Wind Speed 21 mph    
Max Gust Speed 33 mph    
Visibility 6 miles    
Events Snow    
Averages and records for this station are not official NWS values.
T = Trace of Precipitation, MM = Missing Value Source: NWS Daily Summary

Daily Weather History Graph

Daily Weather History Graph

Search for Another Location

Airport or City:

Trip Planner

Search our weather history database for the weather conditions in past years. The results will help you decide how hot, cold, wet, or windy it might be!

Date:

Astronomy

Dec. 21, 2012 Rise Set
Actual Time 7:42 AM EST 5:15 PM EST
Civil Twilight 7:13 AM EST 5:44 PM EST
Nautical Twilight 6:40 AM EST 6:17 PM EST
Astronomical Twilight 6:08 AM EST 6:49 PM EST
Moon 12:57 PM EST (12/21) 1:32 AM EST (12/21)
Length of Visible Light 10h 31m
Length of Day
9h 33m
Waxing Gibbous, 64% of the Moon is Illuminated
Dec 21
Waxing Gibbous
Dec 28
Full
Jan 4
Last Quarter
Jan 11
New
Jan 18
First Quarter

Hourly Weather History & Observations

Time (EST) Temp. Windchill Dew Point Humidity Pressure Visibility Wind Dir Wind Speed Gust Speed Precip Events Conditions
12:15 AM 35.6 °F 26.6 °F 27.3 °F 72% 29.63 in 10.0 mi WSW 13.8 mph 29.9 mph N/A   Overcast
12:35 AM 35.1 °F 25.9 °F 28.2 °F 76% 29.63 in 7.0 mi West 13.8 mph 23.0 mph N/A Snow Light Snow
12:55 AM 33.4 °F 25.9 °F 30.0 °F 87% 29.64 in 4.0 mi West 9.2 mph 17.3 mph N/A Snow Light Snow
1:15 AM 33.1 °F 24.4 °F 29.7 °F 87% 29.63 in 10.0 mi West 11.5 mph 18.4 mph N/A   Overcast
1:35 AM 33.8 °F 25.8 °F 27.9 °F 79% 29.64 in 10.0 mi WSW 10.4 mph 25.3 mph N/A Snow Light Snow
1:55 AM 32.9 °F 25.3 °F 28.9 °F 85% 29.64 in 10.0 mi West 9.2 mph 19.6 mph N/A   Overcast
2:15 AM 33.3 °F 23.7 °F 26.6 °F 77% 29.64 in 10.0 mi West 13.8 mph 32.2 mph N/A   Overcast
2:35 AM 32.7 °F 23.0 °F 26.6 °F 78% 29.64 in 10.0 mi West 13.8 mph 21.9 mph N/A   Overcast
2:55 AM 32.4 °F 25.3 °F 26.4 °F 79% 29.64 in 10.0 mi West 8.1 mph 20.7 mph N/A   Overcast
3:15 AM 32.0 °F 24.8 °F 26.8 °F 81% 29.65 in 10.0 mi West 8.1 mph 23.0 mph N/A   Overcast
3:35 AM 32.0 °F 19.8 °F 26.6 °F 80% 29.64 in 10.0 mi West 20.7 mph 31.1 mph N/A Snow Light Snow
3:55 AM 32.0 °F 23.6 °F 25.7 °F 78% 29.65 in 10.0 mi West 10.4 mph 27.6 mph N/A   Overcast
4:15 AM 32.0 °F 23.0 °F 25.7 °F 78% 29.65 in 10.0 mi West 11.5 mph 28.8 mph N/A Snow Light Snow
4:35 AM 31.6 °F 24.4 °F 26.2 °F 80% 29.65 in 10.0 mi West 8.1 mph 19.6 mph N/A Snow Light Snow
4:55 AM 31.1 °F 22.4 °F 26.4 °F 83% 29.65 in 10.0 mi West 10.4 mph 17.3 mph N/A Snow Light Snow
5:15 AM 31.3 °F 22.7 °F 25.7 °F 80% 29.65 in 5.0 mi West 10.4 mph 23.0 mph N/A Snow Light Snow
5:35 AM 30.7 °F 24.1 °F 26.2 °F 83% 29.65 in 3.0 mi West 6.9 mph 25.3 mph N/A Snow Light Snow
5:55 AM 30.2 °F 20.8 °F 26.2 °F 85% 29.66 in 3.0 mi West 11.5 mph 21.9 mph N/A Snow Light Snow
6:15 AM 29.8 °F 23.0 °F 26.8 °F 88% 29.67 in 2.0 mi West 6.9 mph - N/A Snow Light Snow
6:35 AM 29.8 °F 22.2 °F 26.6 °F 88% 29.67 in 3.0 mi West 8.1 mph 18.4 mph N/A Snow Light Snow
6:55 AM 29.7 °F 18.6 °F 26.6 °F 88% 29.68 in 1.8 mi West 15.0 mph 28.8 mph N/A Snow Light Snow
7:15 AM 29.3 °F 19.6 °F 25.9 °F 87% 29.68 in 3.0 mi West 11.5 mph 24.2 mph N/A Snow Light Snow
7:35 AM 29.1 °F 17.9 °F 26.4 °F 90% 29.69 in 1.5 mi West 15.0 mph 20.7 mph N/A Snow Light Snow
7:55 AM 29.1 °F 20.0 °F 26.1 °F 88% 29.69 in 1.5 mi West 10.4 mph 20.7 mph N/A Snow Light Snow
8:15 AM 28.8 °F 19.0 °F 25.7 °F 88% 29.70 in 2.0 mi West 11.5 mph 25.3 mph N/A Snow Light Snow
8:35 AM 28.9 °F 18.6 °F 24.8 °F 84% 29.70 in 2.5 mi West 12.7 mph 23.0 mph N/A Snow Light Snow
8:55 AM 28.8 °F 16.2 °F 23.9 °F 82% 29.71 in 4.0 mi West 18.4 mph 29.9 mph N/A Snow Light Snow
9:15 AM 28.8 °F 17.9 °F 24.8 °F 85% 29.72 in 2.5 mi West 13.8 mph 20.7 mph N/A Snow Light Snow
9:35 AM 28.8 °F 19.0 °F 24.4 °F 84% 29.72 in 2.0 mi West 11.5 mph 25.3 mph N/A Snow Light Snow
9:55 AM 28.4 °F 18.0 °F 24.8 °F 86% 29.73 in 2.0 mi West 12.7 mph 25.3 mph N/A Snow Light Snow
10:15 AM 28.4 °F 17.5 °F 24.8 °F 86% 29.74 in 2.0 mi West 13.8 mph 25.3 mph N/A Snow Light Snow
10:35 AM 28.4 °F 18.0 °F 24.8 °F 86% 29.75 in 2.0 mi West 12.7 mph 18.4 mph N/A Snow Light Snow
10:55 AM 28.4 °F 16.2 °F 24.8 °F 86% 29.75 in 2.5 mi West 17.3 mph 27.6 mph N/A Snow Light Snow
11:15 AM 28.9 °F 19.8 °F 24.1 °F 82% 29.76 in 5.0 mi West 10.4 mph 24.2 mph N/A Snow Light Snow
11:35 AM 29.3 °F 17.0 °F 24.3 °F 81% 29.76 in 4.0 mi West 18.4 mph 32.2 mph N/A Snow Light Snow
11:55 AM 29.1 °F 18.4 °F 24.3 °F 82% 29.76 in 3.0 mi West 13.8 mph 26.5 mph N/A Snow Light Snow
12:15 PM 29.3 °F 19.1 °F 24.4 °F 82% 29.76 in 4.0 mi WNW 12.7 mph 20.7 mph N/A Snow Light Snow
12:35 PM 29.7 °F 18.6 °F 24.1 °F 80% 29.76 in 7.0 mi West 15.0 mph 28.8 mph N/A Snow Light Snow
12:55 PM 29.7 °F 18.2 °F 24.4 °F 81% 29.77 in 4.0 mi West 16.1 mph 24.2 mph N/A Snow Light Snow
1:15 PM 29.3 °F 18.6 °F 24.6 °F 83% 29.77 in 2.5 mi West 13.8 mph 25.3 mph N/A Snow Light Snow
1:35 PM 29.1 °F 18.9 °F 25.0 °F 85% 29.78 in 1.2 mi West 12.7 mph 25.3 mph N/A Snow Light Snow
1:55 PM 28.8 °F 17.5 °F 24.8 °F 85% 29.78 in 2.0 mi West 15.0 mph 24.2 mph N/A Snow Light Snow
2:15 PM 29.1 °F 17.9 °F 24.8 °F 84% 29.79 in 1.2 mi West 15.0 mph 25.3 mph N/A Snow Light Snow
2:35 PM 29.1 °F 18.4 °F 24.8 °F 84% 29.79 in 2.0 mi WNW 13.8 mph 21.9 mph N/A Snow Light Snow
2:55 PM 29.1 °F 17.5 °F 24.6 °F 83% 29.80 in 3.0 mi West 16.1 mph 27.6 mph N/A Snow Light Snow
3:15 PM 29.1 °F 18.4 °F 24.8 °F 84% 29.81 in 4.0 mi West 13.8 mph 24.2 mph N/A Snow Light Snow
3:35 PM 29.1 °F 18.4 °F 24.4 °F 83% 29.82 in 4.0 mi West 13.8 mph 24.2 mph N/A Snow Light Snow
3:55 PM 29.1 °F 18.4 °F 24.1 °F 81% 29.83 in 5.0 mi West 13.8 mph 25.3 mph N/A Snow Light Snow
4:15 PM 29.3 °F 19.1 °F 23.9 °F 80% 29.84 in 7.0 mi WNW 12.7 mph 26.5 mph N/A Snow Light Snow
4:35 PM 29.1 °F 17.9 °F 23.0 °F 78% 29.85 in 10.0 mi West 15.0 mph 25.3 mph N/A Snow Light Snow
4:55 PM 29.3 °F 17.7 °F 22.6 °F 76% 29.86 in 10.0 mi WNW 16.1 mph 20.7 mph N/A Snow Light Snow
5:15 PM 29.3 °F 19.1 °F 22.1 °F 75% 29.87 in 10.0 mi West 12.7 mph 33.4 mph N/A Snow Light Snow
5:55 PM 29.3 °F 20.2 °F 22.5 °F 76% 29.90 in 10.0 mi WNW 10.4 mph 25.3 mph N/A   Overcast
6:15 PM 29.3 °F 18.6 °F 21.7 °F 73% 29.91 in 10.0 mi West 13.8 mph 26.5 mph N/A   Overcast
6:55 PM 28.9 °F 18.6 °F 21.2 °F 73% 29.94 in 10.0 mi WNW 12.7 mph 27.6 mph N/A   Overcast
7:15 PM 28.9 °F 19.8 °F 21.0 °F 72% 29.95 in 10.0 mi West 10.4 mph 26.5 mph N/A   Overcast
7:35 PM 28.8 °F 19.0 °F 21.0 °F 73% 29.96 in 10.0 mi West 11.5 mph 24.2 mph N/A   Overcast
7:55 PM 28.9 °F 18.2 °F 21.0 °F 72% 29.96 in 10.0 mi West 13.8 mph 23.0 mph N/A   Overcast
8:15 PM 29.3 °F 18.2 °F 21.2 °F 72% 29.96 in 10.0 mi West 15.0 mph 26.5 mph N/A   Overcast
8:35 PM 29.3 °F 20.8 °F 21.4 °F 72% 29.97 in 10.0 mi WNW 9.2 mph 20.7 mph N/A   Overcast
8:55 PM 29.8 °F 20.3 °F 21.7 °F 72% 29.97 in 10.0 mi West 11.5 mph 25.3 mph N/A   Overcast
9:15 PM 30.2 °F 19.3 °F 21.7 °F 71% 29.98 in 10.0 mi West 15.0 mph 20.7 mph N/A   Overcast
9:35 PM 30.2 °F 18.1 °F 21.7 °F 71% 29.99 in 10.0 mi West 18.4 mph 26.5 mph N/A   Overcast
9:55 PM 30.7 °F 20.9 °F 21.9 °F 70% 30.00 in 10.0 mi West 12.7 mph 25.3 mph N/A   Overcast
10:15 PM 30.7 °F 21.4 °F 21.9 °F 70% 30.00 in 10.0 mi West 11.5 mph 23.0 mph N/A   Overcast
10:35 PM 30.7 °F 19.6 °F 21.9 °F 70% 30.01 in 10.0 mi West 16.1 mph 21.9 mph N/A   Overcast
10:55 PM 30.4 °F 21.0 °F 22.1 °F 71% 30.02 in 10.0 mi West 11.5 mph 20.7 mph N/A   Overcast
11:15 PM 30.2 °F 23.4 °F 22.1 °F 72% 30.03 in 10.0 mi WNW 6.9 mph 18.4 mph N/A   Overcast
11:35 PM 30.2 °F 21.9 °F 22.1 °F 72% 30.03 in 10.0 mi West 9.2 mph 23.0 mph N/A   Overcast
11:55 PM 30.0 °F 20.0 °F 22.6 °F 74% 30.03 in 10.0 mi WNW 12.7 mph 21.9 mph N/A   Overcast